STARLINK-6276, 57355

Orbit data source: Space-Track

STARLINK-6276, 57355 is a payload satellite owned by SpaceX/Seattle (US) in LEO that was launched on Sun, 16 Jul 2023 UTC via an FALCON 9 launch vehicle from the Air Force Eastern Test Range (AFETR). Payload-class satellites include a variety of spacecraft equipped with specific instruments for various scientific and technological missions. These include communications satellites like Starlink; space stations such as the ISS; scientific satellites like the Hubble; Earth observation satellites from companies like Planet Labs, Umbra, and HawkEye 360; GPS; miniature CubeSats for education and research; and military/defense satellites.

Loading next visibility...
Identifier
57355, 2023-099AD
Orbit
LEO
Country
Flag of USUS
Related business
Manufacturer
SpaceX/Seattle
Mission
Operational Commercial Communications
Bus & Motor
STARLINK, Unknown motor
Mass
305 kg wet, ~290 kg dry
Launch date (UTC)
2023-07-16 (3 years ago)
Launch vehicle
FALCON 9
Launch site
Air Force Eastern Test Range (AFETR)
Object type
Payload
Rocket body
Debris
Shape & HBR
Box + 1 Pan, 10.1 m
Radar Cross Section
11.087 m², Large (>1 m²)

Expand to show TLE details & history
Last TLE update: 2 days ago

TLE from 2 days ago
0 STARLINK-6276
1 57355U 23099AD  26171.00932723  .00000337  00000-0  21758-4 0  9991
2 57355  43.0023  24.1859 0001387 267.8310  92.2383 15.27577558161843
Epoch: 2026-06-20T00:13Z
TLE epoch observation values (Epoch: 2026-06-20T00:13:25.872Z)
Latitude
-0.00002°
Longitude
112.59798°
Altitude
482.869 km
Speed
7.626 km/s
True Right ascension
01h 36m 44s
True Declination
0° 00' 00"
Sunlit
Object was in daylight at epoch
Visualization orbit readout
Latitude
Unknown
Longitude
Unknown
Altitude
Unknown
Speed
Unknown
Apparent Right ascension
Unknown
Apparent Declination
Unknown
Sunlit
N/A
Visualization observer readout
Local Sidereal Time
23:07:36
Azimuth
Unknown
Elevation
Unknown
Doppler factor
Unknown
Orbital elements
Apogee altitude
485.953 km
Perigee altitude
484.049 km
Semi-major axis
6,863.138 km
Eccentricity
0.00014
Inclination
43.0023°
RAAN
24.1859°
Arg. of periapsis
267.831°
True anomaly
92.25418°
Mean anomaly
92.2383°
Eccentric anomaly
92.24624°
Mean motion
3.81732 °/min
Orbital period
94.31 mins
BSTAR
0.000021758
Loading maneuver chart data...
Computing Atmospheric mass density...
Loading historical data...
Loading historical data...
Loading historical data...
Loading historical data...
Loading historical data...
Loading historical data...
Loading historical data...

Documentation

Showing up to 5 results
|